Language: 


Des rapports , des résumés tant et plus, au choix de chacun....


Données Historiques de Météogheer
Journalier Rapport pour Février 7, 2018 Unitée:  Métrique    Impériale   Les deux
Suivant Jour »
Journalier Hebdomadaire Mensuel Annuel Sur mesure
  Max: Min: Moyenne:
Température: 2.1 °C -3.1 °C -0.5 °C
Point de rosée: -4.0 °C -9.0 °C -6.2 °C
Humidité: 82% 45% 68%
Vent: 14.8km/h 0.0km/h 8.4km/h
Rafales: 18.0km/h - -
Vent- - NE
Pression: 1018.8 hPa 1014.1 hPa -
Pluie: 0.0 mm    
Historical Graphs
 
 
Données tabulaires pour Février 7, 2018
Heure Température Point de rosée Pression Vent Vent Rafales Humidité Pluie Taux (Horaire) Conditions
00:02 -0.7 °C -4.0 °C 1014.1 hPa NNE 8.7 km/h 8.7 km/h 81% 0.0 mm
00:07 -0.8 °C -5.0 °C 1014.1 hPa NNE 8.7 km/h 8.7 km/h 81% 0.0 mm
00:13 -0.8 °C -5.0 °C 1014.1 hPa NNE 8.7 km/h 8.7 km/h 81% 0.0 mm
00:18 -0.9 °C -5.0 °C 1014.1 hPa ENE 10.5 km/h 10.5 km/h 80% 0.0 mm
00:23 -0.9 °C -5.0 °C 1014.1 hPa NNE 11.9 km/h 11.9 km/h 80% 0.0 mm
00:28 -0.9 °C -5.0 °C 1014.1 hPa NNE 11.9 km/h 11.9 km/h 80% 0.0 mm
00:33 -0.9 °C -5.0 °C 1014.1 hPa NNE 13.0 km/h 13.0 km/h 81% 0.0 mm
00:38 -0.9 °C -5.0 °C 1014.1 hPa NNE 13.0 km/h 13.0 km/h 81% 0.0 mm
00:42 -0.9 °C -5.0 °C 1014.1 hPa NE 12.6 km/h 13.0 km/h 81% 0.0 mm
00:48 -0.9 °C -5.0 °C 1014.1 hPa NE 12.6 km/h 13.0 km/h 81% 0.0 mm
00:53 -0.9 °C -5.0 °C 1014.1 hPa NE 12.6 km/h 12.6 km/h 81% 0.0 mm
00:58 -0.9 °C -5.0 °C 1014.1 hPa NE 12.6 km/h 12.6 km/h 81% 0.0 mm
01:03 -0.9 °C -5.0 °C 1014.1 hPa NE 12.6 km/h 12.6 km/h 81% 0.0 mm
01:08 -0.9 °C -5.0 °C 1014.1 hPa NE 12.6 km/h 12.6 km/h 81% 0.0 mm
01:13 -1.0 °C -5.0 °C 1014.1 hPa North 12.6 km/h 12.6 km/h 81% 0.0 mm
01:18 -1.0 °C -5.0 °C 1014.1 hPa North 12.6 km/h 12.6 km/h 81% 0.0 mm
01:23 -1.0 °C -4.0 °C 1014.1 hPa North 12.6 km/h 12.6 km/h 82% 0.0 mm
01:28 -1.0 °C -4.0 °C 1014.1 hPa North 12.6 km/h 12.6 km/h 82% 0.0 mm
01:33 -1.0 °C -4.0 °C 1014.1 hPa North 12.6 km/h 12.6 km/h 82% 0.0 mm
01:38 -1.0 °C -4.0 °C 1014.1 hPa North 12.6 km/h 12.6 km/h 82% 0.0 mm
01:43 -1.0 °C -4.0 °C 1014.1 hPa North 12.6 km/h 12.6 km/h 82% 0.0 mm
01:49 -1.0 °C -4.0 °C 1014.1 hPa North 12.6 km/h 12.6 km/h 82% 0.0 mm
01:54 -1.0 °C -4.0 °C 1014.1 hPa NNE 14.0 km/h 14.0 km/h 82% 0.0 mm
01:59 -1.0 °C -4.0 °C 1014.1 hPa NNE 14.0 km/h 14.0 km/h 82% 0.0 mm
02:04 -1.0 °C -5.0 °C 1014.1 hPa NNE 11.9 km/h 14.0 km/h 80% 0.0 mm
02:09 -1.0 °C -5.0 °C 1014.1 hPa NNE 12.6 km/h 14.0 km/h 80% 0.0 mm
02:14 -1.0 °C -5.0 °C 1014.1 hPa NNE 12.6 km/h 12.6 km/h 79% 0.0 mm
02:19 -1.0 °C -5.0 °C 1014.1 hPa NNE 12.6 km/h 12.6 km/h 78% 0.0 mm
02:24 -1.0 °C -5.0 °C 1014.1 hPa NNE 12.6 km/h 12.6 km/h 78% 0.0 mm
02:29 -1.0 °C -5.0 °C 1014.1 hPa NE 13.0 km/h 13.0 km/h 78% 0.0 mm
02:34 -1.0 °C -5.0 °C 1014.1 hPa NE 13.0 km/h 13.0 km/h 78% 0.0 mm
02:39 -1.0 °C -5.0 °C 1014.1 hPa NE 13.0 km/h 13.0 km/h 77% 0.0 mm
02:44 -1.0 °C -5.0 °C 1014.1 hPa NE 13.0 km/h 13.0 km/h 77% 0.0 mm
02:49 -1.0 °C -5.0 °C 1014.1 hPa NE 12.6 km/h 13.0 km/h 77% 0.0 mm
02:54 -1.1 °C -5.0 °C 1014.1 hPa ENE 12.6 km/h 15.4 km/h 77% 0.0 mm
02:59 -1.1 °C -5.0 °C 1014.1 hPa NNE 13.0 km/h 15.4 km/h 76% 0.0 mm
03:04 -1.1 °C -5.0 °C 1014.1 hPa NNE 11.9 km/h 14.8 km/h 76% 0.0 mm
03:09 -1.1 °C -5.0 °C 1014.1 hPa NE 13.0 km/h 14.0 km/h 75% 0.0 mm
03:14 -1.1 °C -5.0 °C 1014.1 hPa NE 13.7 km/h 14.0 km/h 75% 0.0 mm
03:19 -1.1 °C -6.0 °C 1014.1 hPa NNE 11.6 km/h 18.0 km/h 74% 0.0 mm
03:24 -1.2 °C -6.0 °C 1014.1 hPa NE 9.3 km/h 18.0 km/h 74% 0.0 mm
03:29 -1.2 °C -6.0 °C 1014.1 hPa NE 14.8 km/h 14.8 km/h 73% 0.0 mm
03:34 -1.2 °C -6.0 °C 1014.1 hPa NE 4.7 km/h 14.8 km/h 72% 0.0 mm
03:39 -1.3 °C -6.0 °C 1014.1 hPa NE 12.6 km/h 14.8 km/h 72% 0.0 mm
03:44 -1.3 °C -6.0 °C 1014.1 hPa NNE 9.0 km/h 13.7 km/h 71% 0.0 mm
03:49 -1.4 °C -6.0 °C 1014.1 hPa NNE 9.3 km/h 12.6 km/h 71% 0.0 mm
03:55 -1.4 °C -6.0 °C 1014.1 hPa NE 9.3 km/h 12.2 km/h 72% 0.0 mm
04:00 -1.5 °C -6.0 °C 1014.1 hPa NNE 9.0 km/h 12.6 km/h 72% 0.0 mm
04:05 -1.5 °C -6.0 °C 1014.1 hPa NNE 10.5 km/h 12.6 km/h 72% 0.0 mm
04:10 -1.6 °C -6.0 °C 1014.1 hPa NNE 9.0 km/h 12.6 km/h 73% 0.0 mm
04:15 -1.7 °C -6.0 °C 1014.1 hPa NE 1.4 km/h 10.5 km/h 73% 0.0 mm
04:20 -1.9 °C -6.0 °C 1014.1 hPa NE 6.4 km/h 10.5 km/h 74% 0.0 mm
04:25 -1.9 °C -6.0 °C 1014.1 hPa North 4.7 km/h 10.5 km/h 75% 0.0 mm
04:30 -2.0 °C -6.0 °C 1014.1 hPa North 6.9 km/h 7.9 km/h 76% 0.0 mm
04:35 -2.0 °C -6.0 °C 1014.1 hPa NNE 6.4 km/h 11.9 km/h 77% 0.0 mm
04:40 -2.1 °C -6.0 °C 1014.1 hPa NNE 6.9 km/h 11.9 km/h 77% 0.0 mm
04:45 -2.1 °C -6.0 °C 1014.1 hPa NE 6.4 km/h 9.7 km/h 78% 0.0 mm
04:50 -2.1 °C -6.0 °C 1014.1 hPa NNE 9.0 km/h 9.7 km/h 79% 0.0 mm
04:55 -2.2 °C -6.0 °C 1014.1 hPa NNE 8.7 km/h 9.7 km/h 80% 0.0 mm
05:00 -2.2 °C -6.0 °C 1014.1 hPa NNE 9.7 km/h 12.6 km/h 80% 0.0 mm
05:05 -2.2 °C -6.0 °C 1014.1 hPa NNW 9.3 km/h 12.6 km/h 81% 0.0 mm
05:10 -2.2 °C -6.0 °C 1014.1 hPa North 8.7 km/h 12.6 km/h 81% 0.0 mm
05:15 -2.1 °C -5.0 °C 1014.1 hPa North 9.3 km/h 12.6 km/h 82% 0.0 mm
05:20 -2.1 °C -5.0 °C 1014.1 hPa NE 10.5 km/h 14.0 km/h 82% 0.0 mm
05:25 -2.0 °C -5.0 °C 1014.1 hPa NE 10.5 km/h 14.0 km/h 82% 0.0 mm
05:30 -1.9 °C -5.0 °C 1014.1 hPa NE 9.7 km/h 14.0 km/h 80% 0.0 mm
05:36 -1.9 °C -5.0 °C 1014.1 hPa NE 12.2 km/h 15.4 km/h 80% 0.0 mm
05:41 -1.9 °C -6.0 °C 1014.1 hPa ENE 13.7 km/h 15.4 km/h 79% 0.0 mm
05:46 -1.9 °C -6.0 °C 1014.1 hPa NNE 14.0 km/h 14.3 km/h 78% 0.0 mm
05:51 -1.8 °C -6.0 °C 1014.1 hPa NNE 12.6 km/h 14.3 km/h 77% 0.0 mm
05:56 -1.9 °C -6.0 °C 1014.1 hPa North 11.9 km/h 14.0 km/h 77% 0.0 mm
06:01 -1.8 °C -6.0 °C 1014.1 hPa ENE 10.5 km/h 14.0 km/h 76% 0.0 mm
06:06 -1.9 °C -6.0 °C 1014.1 hPa NE 13.0 km/h 15.8 km/h 75% 0.0 mm
06:11 -1.9 °C -6.0 °C 1014.1 hPa NNE 11.9 km/h 15.8 km/h 75% 0.0 mm
06:16 -1.9 °C -6.0 °C 1014.1 hPa NNE 9.0 km/h 14.0 km/h 75% 0.0 mm
06:21 -2.0 °C -6.0 °C 1014.1 hPa NE 10.1 km/h 14.3 km/h 75% 0.0 mm
06:26 -2.0 °C -6.0 °C 1014.1 hPa ENE 9.3 km/h 14.3 km/h 75% 0.0 mm
06:31 -2.1 °C -6.0 °C 1014.1 hPa NE 11.9 km/h 14.0 km/h 75% 0.0 mm
06:36 -2.1 °C -6.0 °C 1014.1 hPa NE 6.4 km/h 14.3 km/h 75% 0.0 mm
06:41 -2.3 °C -7.0 °C 1014.1 hPa NE 11.1 km/h 14.3 km/h 75% 0.0 mm
06:46 -2.3 °C -7.0 °C 1014.1 hPa NNE 13.7 km/h 13.7 km/h 75% 0.0 mm
06:51 -2.3 °C -7.0 °C 1014.1 hPa NE 9.7 km/h 13.7 km/h 75% 0.0 mm
06:56 -2.4 °C -7.0 °C 1014.1 hPa NE 11.1 km/h 11.9 km/h 75% 0.0 mm
07:01 -2.4 °C -7.0 °C 1015.1 hPa NE 9.3 km/h 11.9 km/h 76% 0.0 mm
07:06 -2.5 °C -7.0 °C 1015.1 hPa NE 9.0 km/h 10.1 km/h 76% 0.0 mm
07:11 -2.6 °C -7.0 °C 1015.1 hPa NNE 7.9 km/h 10.1 km/h 76% 0.0 mm
07:16 -2.7 °C -7.0 °C 1015.1 hPa NE 6.9 km/h 10.5 km/h 77% 0.0 mm
07:21 -2.8 °C -7.0 °C 1015.1 hPa NE 9.7 km/h 10.5 km/h 77% 0.0 mm
07:26 -2.8 °C -7.0 °C 1015.1 hPa NE 4.7 km/h 9.7 km/h 78% 0.0 mm
07:32 -2.8 °C -7.0 °C 1015.1 hPa NE 5.0 km/h 10.8 km/h 78% 0.0 mm
07:37 -2.8 °C -7.0 °C 1015.1 hPa NNE 2.6 km/h 10.8 km/h 79% 0.0 mm
07:42 -2.8 °C -7.0 °C 1015.1 hPa North 4.0 km/h 9.3 km/h 79% 0.0 mm
07:47 -2.9 °C -7.0 °C 1015.1 hPa NNE 3.2 km/h 8.7 km/h 79% 0.0 mm
07:52 -2.9 °C -7.0 °C 1015.1 hPa North 4.0 km/h 7.6 km/h 79% 0.0 mm
07:57 -2.9 °C -7.0 °C 1015.1 hPa North 1.8 km/h 7.9 km/h 79% 0.0 mm
08:02 -3.0 °C -6.0 °C 1015.1 hPa North 6.1 km/h 9.3 km/h 80% 0.0 mm
08:07 -3.0 °C -6.0 °C 1015.1 hPa NNE 3.2 km/h 9.3 km/h 80% 0.0 mm
08:12 -3.0 °C -6.0 °C 1015.1 hPa NNW 7.9 km/h 7.9 km/h 80% 0.0 mm
08:17 -3.0 °C -6.0 °C 1015.1 hPa North 6.9 km/h 7.9 km/h 80% 0.0 mm
08:22 -3.1 °C -6.0 °C 1015.1 hPa NNE 6.1 km/h 9.7 km/h 80% 0.0 mm
08:27 -3.1 °C -6.0 °C 1015.1 hPa Calm   9.7 km/h 80% 0.0 mm
08:32 -3.0 °C -6.0 °C 1015.1 hPa NNE 4.3 km/h 8.7 km/h 80% 0.0 mm
08:37 -3.0 °C -6.0 °C 1015.1 hPa North 4.7 km/h 8.7 km/h 80% 0.0 mm
08:42 -3.0 °C -6.0 °C 1015.1 hPa NE 4.3 km/h 6.9 km/h 80% 0.0 mm
08:47 -3.0 °C -6.0 °C 1016.1 hPa NE 4.3 km/h 5.8 km/h 80% 0.0 mm
08:52 -2.9 °C -6.0 °C 1016.1 hPa NNE 4.0 km/h 4.3 km/h 80% 0.0 mm
08:57 -2.8 °C -6.0 °C 1016.1 hPa Calm   4.3 km/h 81% 0.0 mm
09:02 -2.6 °C -6.0 °C 1016.1 hPa North 1.8 km/h 4.0 km/h 82% 0.0 mm
09:07 -2.4 °C -6.0 °C 1016.1 hPa NNE 7.9 km/h 7.9 km/h 82% 0.0 mm
09:12 -2.3 °C -6.0 °C 1016.1 hPa NNE 7.9 km/h 7.9 km/h 82% 0.0 mm
09:17 -2.2 °C -5.0 °C 1016.1 hPa NNE 7.9 km/h 7.9 km/h 82% 0.0 mm
09:22 -2.0 °C -6.0 °C 1016.1 hPa NNE 7.9 km/h 7.9 km/h 81% 0.0 mm
09:27 -1.8 °C -5.0 °C 1016.1 hPa NNE 7.9 km/h 7.9 km/h 80% 0.0 mm
09:32 -1.5 °C -5.0 °C 1016.8 hPa NNE 7.9 km/h 7.9 km/h 80% 0.0 mm
09:37 -1.4 °C -5.0 °C 1016.8 hPa NNE 7.9 km/h 7.9 km/h 79% 0.0 mm
09:43 -1.3 °C -5.0 °C 1016.8 hPa NNE 7.9 km/h 7.9 km/h 78% 0.0 mm
09:48 -1.3 °C -6.0 °C 1016.8 hPa NNE 7.9 km/h 7.9 km/h 76% 0.0 mm
09:53 -1.4 °C -6.0 °C 1016.8 hPa NNE 7.9 km/h 7.9 km/h 76% 0.0 mm
09:58 -1.5 °C -6.0 °C 1016.8 hPa NNE 7.9 km/h 7.9 km/h 75% 0.0 mm
10:03 -1.2 °C -6.0 °C 1016.8 hPa NNE 7.9 km/h 7.9 km/h 76% 0.0 mm
10:08 -1.1 °C -5.0 °C 1016.8 hPa NNE 7.9 km/h 7.9 km/h 75% 0.0 mm
10:13 -1.0 °C -5.0 °C 1016.8 hPa NNE 7.9 km/h 7.9 km/h 75% 0.0 mm
10:18 -0.6 °C -6.0 °C 1016.8 hPa NNE 7.9 km/h 7.9 km/h 73% 0.0 mm
10:23 -0.5 °C -6.0 °C 1016.8 hPa NNE 7.9 km/h 7.9 km/h 72% 0.0 mm
10:28 -0.4 °C -5.0 °C 1016.8 hPa NNE 7.9 km/h 7.9 km/h 72% 0.0 mm
10:33 -0.2 °C -6.0 °C 1016.1 hPa NNE 8.7 km/h 8.7 km/h 70% 0.0 mm
10:38 -0.1 °C -6.0 °C 1016.1 hPa NNE 8.7 km/h 8.7 km/h 69% 0.0 mm
10:43 0.1 °C -5.0 °C 1016.1 hPa NNE 8.7 km/h 8.7 km/h 68% 0.0 mm
10:48 0.2 °C -5.0 °C 1016.8 hPa NNE 8.7 km/h 8.7 km/h 67% 0.0 mm
10:53 0.3 °C -5.0 °C 1016.8 hPa NNE 8.7 km/h 8.7 km/h 65% 0.0 mm
10:58 0.4 °C -6.0 °C 1016.8 hPa NNE 8.7 km/h 8.7 km/h 62% 0.0 mm
11:03 0.6 °C -6.0 °C 1016.8 hPa NNE 8.7 km/h 8.7 km/h 60% 0.0 mm
11:09 0.6 °C -6.0 °C 1016.8 hPa NNE 8.7 km/h 8.7 km/h 58% 0.0 mm
11:14 0.7 °C -7.0 °C 1016.8 hPa NNE 8.7 km/h 8.7 km/h 57% 0.0 mm
11:19 0.8 °C -7.0 °C 1016.8 hPa NNE 8.7 km/h 8.7 km/h 55% 0.0 mm
11:24 0.9 °C -7.0 °C 1016.8 hPa NNE 8.7 km/h 8.7 km/h 56% 0.0 mm
11:29 0.9 °C -7.0 °C 1016.8 hPa NNE 8.7 km/h 8.7 km/h 55% 0.0 mm
11:34 1.0 °C -7.0 °C 1016.8 hPa NNE 8.7 km/h 8.7 km/h 54% 0.0 mm
11:39 1.2 °C -7.0 °C 1016.8 hPa NNE 8.7 km/h 8.7 km/h 54% 0.0 mm
11:44 1.2 °C -7.0 °C 1016.8 hPa NNE 8.7 km/h 8.7 km/h 52% 0.0 mm
11:49 1.3 °C -7.0 °C 1016.8 hPa NNE 8.7 km/h 8.7 km/h 53% 0.0 mm
11:54 1.3 °C -7.0 °C 1016.8 hPa NNE 8.7 km/h 8.7 km/h 52% 0.0 mm
11:59 1.4 °C -7.0 °C 1016.8 hPa NNE 8.7 km/h 8.7 km/h 52% 0.0 mm
12:04 1.5 °C -7.0 °C 1016.8 hPa NNE 8.7 km/h 8.7 km/h 50% 0.0 mm
12:09 1.7 °C -7.0 °C 1016.8 hPa NNE 8.7 km/h 8.7 km/h 50% 0.0 mm
12:14 1.7 °C -7.0 °C 1016.8 hPa NNE 8.7 km/h 8.7 km/h 50% 0.0 mm
12:19 1.8 °C -8.0 °C 1016.8 hPa NNE 8.7 km/h 8.7 km/h 47% 0.0 mm
12:24 1.9 °C -9.0 °C 1016.8 hPa NNE 8.7 km/h 8.7 km/h 45% 0.0 mm
12:29 2.0 °C -8.0 °C 1016.8 hPa NNE 8.7 km/h 8.7 km/h 46% 0.0 mm
12:34 2.0 °C -8.0 °C 1016.8 hPa NNE 8.7 km/h 8.7 km/h 46% 0.0 mm
12:39 2.1 °C -8.0 °C 1016.8 hPa NNE 8.7 km/h 8.7 km/h 46% 0.0 mm
12:44 2.1 °C -8.0 °C 1016.8 hPa NNE 8.7 km/h 8.7 km/h 47% 0.0 mm
12:49 1.9 °C -8.0 °C 1016.8 hPa NNE 8.7 km/h 8.7 km/h 48% 0.0 mm
12:54 1.9 °C -8.0 °C 1016.8 hPa NNE 8.7 km/h 8.7 km/h 47% 0.0 mm
12:59 1.6 °C -8.0 °C 1016.8 hPa NNE 8.7 km/h 8.7 km/h 47% 0.0 mm
13:04 1.6 °C -8.0 °C 1016.8 hPa NNE 8.7 km/h 8.7 km/h 47% 0.0 mm
13:09 1.5 °C -8.0 °C 1016.8 hPa NNE 8.7 km/h 8.7 km/h 48% 0.0 mm
13:14 1.5 °C -8.0 °C 1016.8 hPa NNE 8.7 km/h 8.7 km/h 48% 0.0 mm
13:19 1.5 °C -8.0 °C 1016.8 hPa NNE 8.7 km/h 8.7 km/h 48% 0.0 mm
13:24 1.6 °C -8.0 °C 1016.8 hPa NNE 8.7 km/h 8.7 km/h 49% 0.0 mm
13:29 1.6 °C -8.0 °C 1018.2 hPa NNE 8.7 km/h 8.7 km/h 47% 0.0 mm
13:34 1.8 °C -8.0 °C 1018.2 hPa NNE 8.7 km/h 8.7 km/h 48% 0.0 mm
13:39 1.9 °C -8.0 °C 1018.2 hPa NNE 8.7 km/h 8.7 km/h 48% 0.0 mm
13:44 1.8 °C -8.0 °C 1016.8 hPa NNE 8.7 km/h 8.7 km/h 48% 0.0 mm
13:49 1.7 °C -8.0 °C 1016.8 hPa NNE 8.7 km/h 8.7 km/h 47% 0.0 mm
13:54 1.7 °C -8.0 °C 1016.8 hPa NNE 8.7 km/h 8.7 km/h 47% 0.0 mm
13:59 1.7 °C -8.0 °C 1018.2 hPa NNE 8.7 km/h 8.7 km/h 47% 0.0 mm
14:04 1.7 °C -8.0 °C 1018.2 hPa NNE 8.7 km/h 8.7 km/h 48% 0.0 mm
14:09 1.7 °C -8.0 °C 1018.2 hPa NNE 8.7 km/h 8.7 km/h 48% 0.0 mm
14:14 1.7 °C -9.0 °C 1018.2 hPa NNE 8.7 km/h 8.7 km/h 46% 0.0 mm
14:19 1.8 °C -9.0 °C 1018.2 hPa NNE 8.7 km/h 8.7 km/h 45% 0.0 mm
14:24 1.9 °C -8.0 °C 1018.2 hPa NNE 8.7 km/h 8.7 km/h 46% 0.0 mm
14:29 1.9 °C -8.0 °C 1018.2 hPa NNE 8.7 km/h 8.7 km/h 48% 0.0 mm
14:34 1.9 °C -8.0 °C 1018.2 hPa NNE 8.7 km/h 8.7 km/h 48% 0.0 mm
14:39 1.9 °C -8.0 °C 1018.2 hPa NNE 8.7 km/h 8.7 km/h 48% 0.0 mm
14:44 1.9 °C -8.0 °C 1016.8 hPa NNE 8.7 km/h 8.7 km/h 48% 0.0 mm
14:50 2.0 °C -7.0 °C 1016.8 hPa NNE 8.7 km/h 8.7 km/h 50% 0.0 mm
14:55 2.0 °C -7.0 °C 1016.8 hPa NNE 8.7 km/h 8.7 km/h 50% 0.0 mm
15:00 2.0 °C -7.0 °C 1018.2 hPa NNE 8.7 km/h 8.7 km/h 50% 0.0 mm
15:05 1.9 °C -7.0 °C 1018.2 hPa NNE 8.7 km/h 8.7 km/h 51% 0.0 mm
15:10 2.0 °C -7.0 °C 1018.2 hPa NNE 8.7 km/h 8.7 km/h 50% 0.0 mm
15:15 2.0 °C -7.0 °C 1018.2 hPa NNE 8.7 km/h 8.7 km/h 50% 0.0 mm
15:20 2.0 °C -7.0 °C 1018.2 hPa NNE 8.7 km/h 8.7 km/h 50% 0.0 mm
15:25 2.0 °C -7.0 °C 1018.2 hPa NNE 8.7 km/h 8.7 km/h 50% 0.0 mm
15:30 2.0 °C -7.0 °C 1018.2 hPa NNE 8.7 km/h 8.7 km/h 50% 0.0 mm
15:35 2.0 °C -7.0 °C 1018.2 hPa NNE 8.7 km/h 8.7 km/h 51% 0.0 mm
15:40 1.9 °C -7.0 °C 1018.2 hPa NNE 8.7 km/h 8.7 km/h 50% 0.0 mm
15:45 1.9 °C -7.0 °C 1016.8 hPa NNE 8.7 km/h 8.7 km/h 50% 0.0 mm
15:50 1.9 °C -7.0 °C 1016.8 hPa NNE 8.7 km/h 8.7 km/h 50% 0.0 mm
15:55 1.9 °C -7.0 °C 1016.8 hPa NNE 8.7 km/h 8.7 km/h 51% 0.0 mm
16:00 1.8 °C -7.0 °C 1016.8 hPa NNE 8.7 km/h 8.7 km/h 51% 0.0 mm
16:05 1.8 °C -7.0 °C 1016.8 hPa NNE 8.7 km/h 8.7 km/h 51% 0.0 mm
16:10 1.7 °C -7.0 °C 1016.8 hPa NNE 8.7 km/h 8.7 km/h 50% 0.0 mm
16:15 1.7 °C -7.0 °C 1016.8 hPa NNE 8.7 km/h 8.7 km/h 51% 0.0 mm
16:20 1.6 °C -7.0 °C 1016.8 hPa NNE 8.7 km/h 8.7 km/h 52% 0.0 mm
16:25 1.6 °C -7.0 °C 1016.8 hPa NNE 8.7 km/h 8.7 km/h 53% 0.0 mm
16:30 1.6 °C -7.0 °C 1018.2 hPa NNE 8.7 km/h 8.7 km/h 53% 0.0 mm
16:35 1.5 °C -7.0 °C 1018.2 hPa NNE 8.7 km/h 8.7 km/h 53% 0.0 mm
16:40 1.5 °C -7.0 °C 1018.2 hPa NNE 8.7 km/h 8.7 km/h 53% 0.0 mm
16:41 1.5 °C -6.0 °C 1018.2 hPa NNE 8.7 km/h 8.7 km/h 54% 0.0 mm
16:46 1.5 °C -6.0 °C 1016.8 hPa NNE 8.7 km/h 8.7 km/h 54% 0.0 mm
16:51 1.4 °C -7.0 °C 1016.8 hPa NNE 8.7 km/h 8.7 km/h 55% 0.0 mm
16:56 1.3 °C -7.0 °C 1016.8 hPa NNE 8.7 km/h 8.7 km/h 55% 0.0 mm
16:57 1.3 °C -7.0 °C 1016.8 hPa NNE 8.7 km/h 8.7 km/h 55% 0.0 mm
17:02 1.3 °C -7.0 °C 1018.2 hPa NNE 8.7 km/h 8.7 km/h 55% 0.0 mm
17:07 1.2 °C -6.0 °C 1018.2 hPa NNE 8.7 km/h 8.7 km/h 56% 0.0 mm
17:12 1.2 °C -6.0 °C 1018.2 hPa NNE 8.7 km/h 8.7 km/h 56% 0.0 mm
17:17 1.1 °C -6.0 °C 1016.8 hPa NNE 8.7 km/h 8.7 km/h 57% 0.0 mm
17:22 1.1 °C -6.0 °C 1016.8 hPa NNE 8.7 km/h 8.7 km/h 57% 0.0 mm
17:27 1.0 °C -6.0 °C 1016.8 hPa NNE 8.7 km/h 8.7 km/h 58% 0.0 mm
17:32 1.0 °C -6.0 °C 1018.2 hPa NNE 8.7 km/h 8.7 km/h 58% 0.0 mm
17:37 1.0 °C -6.0 °C 1018.2 hPa NNE 8.7 km/h 8.7 km/h 58% 0.0 mm
17:42 1.0 °C -6.0 °C 1018.2 hPa NNE 8.7 km/h 8.7 km/h 58% 0.0 mm
17:47 0.9 °C -6.0 °C 1018.2 hPa NNE 8.7 km/h 8.7 km/h 59% 0.0 mm
17:52 0.9 °C -6.0 °C 1018.2 hPa NNE 8.7 km/h 8.7 km/h 59% 0.0 mm
17:57 0.9 °C -6.0 °C 1018.2 hPa NNE 8.7 km/h 8.7 km/h 59% 0.0 mm
18:02 0.8 °C -6.0 °C 1018.2 hPa NNE 8.7 km/h 8.7 km/h 60% 0.0 mm
18:07 0.8 °C -6.0 °C 1018.2 hPa NNE 8.7 km/h 8.7 km/h 60% 0.0 mm
18:12 0.8 °C -6.0 °C 1018.2 hPa NNE 8.7 km/h 8.7 km/h 60% 0.0 mm
18:17 0.7 °C -6.0 °C 1018.2 hPa NNE 8.7 km/h 8.7 km/h 61% 0.0 mm
18:22 0.7 °C -6.0 °C 1018.2 hPa NNE 8.7 km/h 8.7 km/h 61% 0.0 mm
18:27 0.6 °C -6.0 °C 1018.2 hPa NNE 8.7 km/h 8.7 km/h 61% 0.0 mm
18:32 0.6 °C -6.0 °C 1018.8 hPa NNE 8.7 km/h 8.7 km/h 62% 0.0 mm
18:37 0.6 °C -6.0 °C 1018.8 hPa NNE 8.7 km/h 8.7 km/h 62% 0.0 mm
18:42 0.6 °C -6.0 °C 1018.8 hPa NNE 8.7 km/h 8.7 km/h 62% 0.0 mm
18:47 0.5 °C -6.0 °C 1018.8 hPa NNE 8.7 km/h 8.7 km/h 62% 0.0 mm
18:52 0.5 °C -6.0 °C 1018.8 hPa NNE 8.7 km/h 8.7 km/h 62% 0.0 mm
18:57 0.4 °C -6.0 °C 1018.8 hPa NNE 8.7 km/h 8.7 km/h 63% 0.0 mm
19:02 0.3 °C -6.0 °C 1018.8 hPa NNE 8.7 km/h 8.7 km/h 63% 0.0 mm
19:07 0.2 °C -6.0 °C 1018.8 hPa NNE 8.7 km/h 8.7 km/h 64% 0.0 mm
19:12 0.1 °C -6.0 °C 1018.8 hPa NNE 8.7 km/h 8.7 km/h 64% 0.0 mm
19:18 0.0 °C -6.0 °C 1018.8 hPa NNE 8.7 km/h 8.7 km/h 65% 0.0 mm
19:23 -0.1 °C -6.0 °C 1018.8 hPa NNE 8.7 km/h 8.7 km/h 66% 0.0 mm
19:28 -0.2 °C -6.0 °C 1018.8 hPa NNE 8.7 km/h 8.7 km/h 66% 0.0 mm
19:33 -0.2 °C -6.0 °C 1018.8 hPa NNE 8.7 km/h 8.7 km/h 66% 0.0 mm
19:38 -0.3 °C -6.0 °C 1018.8 hPa NNE 8.7 km/h 8.7 km/h 67% 0.0 mm
19:43 -0.4 °C -6.0 °C 1018.8 hPa NNE 8.7 km/h 8.7 km/h 67% 0.0 mm
19:48 -0.5 °C -7.0 °C 1018.8 hPa NNE 8.7 km/h 8.7 km/h 67% 0.0 mm
19:53 -0.6 °C -7.0 °C 1018.8 hPa NNE 8.7 km/h 8.7 km/h 67% 0.0 mm
19:58 -0.6 °C -7.0 °C 1018.8 hPa NNE 8.7 km/h 8.7 km/h 67% 0.0 mm
20:03 -0.7 °C -6.0 °C 1018.8 hPa NNE 8.7 km/h 8.7 km/h 68% 0.0 mm
20:08 -0.7 °C -6.0 °C 1018.8 hPa NNE 8.7 km/h 8.7 km/h 68% 0.0 mm
20:13 -0.8 °C -7.0 °C 1018.8 hPa NNE 8.7 km/h 8.7 km/h 68% 0.0 mm
20:18 -0.9 °C -7.0 °C 1018.2 hPa NNE 8.7 km/h 8.7 km/h 68% 0.0 mm
20:23 -1.0 °C -7.0 °C 1018.2 hPa NNE 8.7 km/h 8.7 km/h 68% 0.0 mm
20:28 -1.1 °C -7.0 °C 1018.2 hPa NNE 8.7 km/h 8.7 km/h 68% 0.0 mm
20:33 -1.3 °C -7.0 °C 1018.8 hPa NNE 8.7 km/h 8.7 km/h 68% 0.0 mm
20:38 -1.4 °C -7.0 °C 1018.8 hPa NNE 8.7 km/h 8.7 km/h 68% 0.0 mm
20:43 -1.5 °C -7.0 °C 1018.8 hPa NNE 8.7 km/h 8.7 km/h 69% 0.0 mm
20:48 -1.7 °C -7.0 °C 1018.2 hPa NNE 8.7 km/h 8.7 km/h 69% 0.0 mm
20:53 -1.9 °C -7.0 °C 1018.2 hPa NNE 8.7 km/h 8.7 km/h 70% 0.0 mm
20:58 -1.9 °C -7.0 °C 1018.8 hPa NNE 8.7 km/h 8.7 km/h 71% 0.0 mm
21:03 -2.0 °C -7.0 °C 1018.8 hPa NNE 8.7 km/h 8.7 km/h 72% 0.0 mm
21:09 -2.1 °C -7.0 °C 1018.8 hPa NNE 8.7 km/h 8.7 km/h 73% 0.0 mm
21:14 -2.2 °C -7.0 °C 1018.8 hPa NNE 8.7 km/h 8.7 km/h 73% 0.0 mm
21:19 -2.3 °C -7.0 °C 1018.8 hPa NNE 8.7 km/h 8.7 km/h 74% 0.0 mm
21:24 -2.3 °C -7.0 °C 1018.8 hPa NNE 8.7 km/h 8.7 km/h 74% 0.0 mm
21:29 -2.3 °C -7.0 °C 1018.8 hPa NNE 8.7 km/h 8.7 km/h 75% 0.0 mm
21:34 -2.2 °C -6.0 °C 1018.8 hPa NNE 8.7 km/h 8.7 km/h 76% 0.0 mm
21:39 -2.2 °C -6.0 °C 1018.8 hPa NNE 8.7 km/h 8.7 km/h 76% 0.0 mm
21:44 -2.2 °C -6.0 °C 1018.8 hPa NNE 8.7 km/h 8.7 km/h 77% 0.0 mm
21:49 -2.1 °C -6.0 °C 1018.8 hPa NNE 8.7 km/h 8.7 km/h 77% 0.0 mm
21:54 -2.0 °C -6.0 °C 1018.8 hPa NNE 8.7 km/h 8.7 km/h 78% 0.0 mm
21:59 -2.0 °C -6.0 °C 1018.8 hPa NNE 8.7 km/h 8.7 km/h 78% 0.0 mm
22:04 -1.8 °C -6.0 °C 1018.8 hPa NNE 8.7 km/h 8.7 km/h 78% 0.0 mm
22:09 -1.7 °C -6.0 °C 1018.8 hPa NNE 8.7 km/h 8.7 km/h 78% 0.0 mm
22:14 -1.6 °C -6.0 °C 1018.8 hPa NNE 8.7 km/h 8.7 km/h 78% 0.0 mm
22:19 -1.6 °C -5.0 °C 1018.8 hPa NNE 8.7 km/h 8.7 km/h 79% 0.0 mm
22:24 -1.5 °C -5.0 °C 1018.8 hPa NNE 8.7 km/h 8.7 km/h 79% 0.0 mm
22:29 -1.5 °C -5.0 °C 1018.8 hPa NNE 8.7 km/h 8.7 km/h 80% 0.0 mm
22:34 -1.4 °C -5.0 °C 1018.8 hPa Calm     80% 0.0 mm
22:39 -1.4 °C -5.0 °C 1018.8 hPa Calm     80% 0.0 mm
22:44 -1.4 °C -5.0 °C 1018.8 hPa Calm     80% 0.0 mm
22:50 -1.3 °C -5.0 °C 1018.8 hPa Calm     80% 0.0 mm
22:55 -1.3 °C -5.0 °C 1018.8 hPa Calm     81% 0.0 mm
23:00 -1.3 °C -5.0 °C 1018.8 hPa Calm     81% 0.0 mm
23:05 -1.3 °C -5.0 °C 1018.8 hPa Calm     82% 0.0 mm
23:10 -1.4 °C -5.0 °C 1018.8 hPa Calm     82% 0.0 mm
23:15 -1.4 °C -5.0 °C 1018.8 hPa Calm     82% 0.0 mm
23:20 -1.4 °C -5.0 °C 1018.8 hPa Calm     82% 0.0 mm
23:25 -1.4 °C -5.0 °C 1018.8 hPa Calm     82% 0.0 mm
23:30 -1.4 °C -5.0 °C 1018.8 hPa Calm     81% 0.0 mm
23:35 -1.4 °C -5.0 °C 1018.8 hPa Calm     81% 0.0 mm
23:40 -1.4 °C -5.0 °C 1018.8 hPa Calm     81% 0.0 mm
23:45 -1.6 °C -5.0 °C 1018.8 hPa Calm     81% 0.0 mm
23:50 -1.7 °C -5.0 °C 1018.8 hPa Calm     81% 0.0 mm
23:55 -1.9 °C -5.0 °C 1018.8 hPa Calm     81% 0.0 mm
Données Historique de Météo Turbie

Mise a jour : 26/05/2018 15:54:13
Généré par Cumulus 1.9.4 (1099)